This is the latest recevied weather packets stored in our database for station/object VA2EYZ-13. If no packets are shown the sender has not sent any weather packets the latest 1 day(s).
| Time | Temp. | Humidity | Pressure | Rain* | Wind** | Luminosity | Snow |
|---|---|---|---|---|---|---|---|
| 1778074489 | 8.33° C | 45% | 1010 hPa | - | - | - | - |
| 1778070806 | 8.89° C | 44% | 1010 hPa | - | - | - | - |
| 1778069045 | 8.89° C | 44% | 1010.8 hPa | - | - | - | - |
| 1778068235 | 8.89° C | 46% | 1010 hPa | - | - | - | - |
| 1778066262 | 8.89° C | 46% | 1011 hPa | - | - | - | - |
| 1778064125 | 9.44° C | 42% | 1010 hPa | - | - | - | - |
| 1778060483 | 9.44° C | 40% | 1010 hPa | - | - | - | - |
| 1778060108 | 9.44° C | 40% | 1009 hPa | - | - | - | - |
| 1778059693 | 9.44° C | 40% | 1010 hPa | - | - | - | - |
| 1778059188 | 9.44° C | 40% | 1009 hPa | - | - | - | - |
| 1778058245 | 9.44° C | 40% | 1009 hPa | - | - | - | - |
| 1778056687 | 10° C | 39% | 1009 hPa | - | - | - | - |
| 1778051605 | 10° C | 39% | 1009.8 hPa | - | - | - | - |
| 1778048114 | 10° C | 40% | 1009.4 hPa | - | - | - | - |
| 1778044763 | 10.56° C | 42% | 1009.4 hPa | - | - | - | - |
| 1778043019 | 10.56° C | 42% | 1009 hPa | - | - | - | - |
| 1778041454 | 10.56° C | 42% | 1008.8 hPa | - | - | - | - |
| 1778040318 | 10.56° C | 42% | 1008 hPa | - | - | - | - |
| 1778039418 | 10.56° C | 42% | 1007.9 hPa | - | - | - | - |
| 1778038387 | 10.56° C | 40% | 1007.9 hPa | - | - | - | - |
| 1778036718 | 10.56° C | 40% | 1007 hPa | - | - | - | - |
| 1778035250 | 11.67° C | 38% | 1007.4 hPa | - | - | - | - |
| 1778033118 | 11.67° C | 38% | 1007 hPa | - | - | - | - |
| 1778032052 | 12.78° C | 32% | 1007.4 hPa | - | - | - | - |
| 1778031221 | 12.78° C | 32% | 1006 hPa | - | - | - | - |
* Rain since midnight (hover to see other rain measurements)
** Current wind speed in m/s (hover to see current wind gust speed)